Weather History for LTCD - May, 2013

Change the Weather History Date:

Wednesday, May 22, 2013

  Actual Average Record
Temperature  
Mean Temperature 62 °F -  
Max Temperature 79 °F 78 °F - ()
Min Temperature 45 °F 51 °F - ()
Degree Days  
Heating Degree Days 3    
Growing Degree Days 12 (Base 50)    
Moisture  
Dew Point 39 °F    
Average Humidity 45    
Maximum Humidity 87    
Minimum Humidity 10    
Precipitation  
Precipitation 0.00 in 0.05 in - ()
Sea Level Pressure  
Sea Level Pressure 29.99 in    
Wind  
Wind Speed 3 mph ()    
Max Wind Speed 9 mph    
Max Gust Speed -    
Visibility 6.9 miles    
Events      
T = Trace of Precipitation, MM = Missing Value Source: Averaged Metar Reports

Daily Weather History Graph

Daily Weather History Graph

Search for Another Location

Airport or City:

Trip Planner

Search our weather history database for the weather conditions in past years. The results will help you decide how hot, cold, wet, or windy it might be!

Date:

Astronomy

May. 22, 2013 Rise Set
Actual Time 5:01 AM EEST 7:35 PM EEST
Civil Twilight 4:30 AM EEST 8:07 PM EEST
Nautical Twilight 3:51 AM EEST 8:45 PM EEST
Astronomical Twilight 3:08 AM EEST 9:29 PM EEST
Moon 4:33 PM EEST (5/22) 2:51 AM EEST (5/22)
Length of Visible Light 15h 36m
Length of Day
14h 34m
Waxing Gibbous, 89% of the Moon is Illuminated
May 22
Waxing Gibbous
May 25
Full
May 31
Last Quarter
Jun 8
New
Jun 16
First Quarter

Hourly Weather History & Observations

Time (EEST) Temp. Dew Point Humidity Pressure Visibility Wind Dir Wind Speed Gust Speed Precip Events Conditions
12:50 AM 57.2 °F 41.0 °F 55% 29.98 in - NNW 6.9 mph - N/A   Clear
1:50 AM 55.4 °F 46.4 °F 72% 29.98 in - North 1.2 mph - N/A   Clear
2:50 AM 50.0 °F 44.6 °F 82% 29.98 in - Calm Calm - N/A   Clear
3:00 AM 50 °F 44 °F 74%  in 12 mi Calm Calm - -  
3:50 AM 46.4 °F 42.8 °F 87% 29.98 in - Calm Calm - N/A   Clear
4:50 AM 46.4 °F 42.8 °F 87% 30.01 in - Calm Calm - N/A   Clear
5:50 AM 46.4 °F 42.8 °F 87% 30.01 in - Calm Calm - N/A   Clear
6:50 AM 55.4 °F 48.2 °F 77% 30.01 in - Calm Calm - N/A   Clear
7:50 AM 59.0 °F 48.2 °F 67% 30.04 in - SE 3.5 mph - N/A   Clear
8:50 AM 64.4 °F 48.2 °F 56% 30.04 in 6.2 mi SE 3.5 mph - N/A   Partly Cloudy
9:00 AM 64 °F 47 °F 44%  in 9 mi SE 3.5 mph - -   Scattered Clouds
9:50 AM 66.2 °F 46.4 °F 49% 30.04 in 6.2 mi WSW 3.5 mph - N/A   Scattered Clouds
10:50 AM 69.8 °F 42.8 °F 38% 30.01 in 6.2 mi Variable 2.3 mph - N/A   Scattered Clouds
11:50 AM 73.4 °F 39.2 °F 29% 30.01 in 6.2 mi Variable 2.3 mph - N/A   Scattered Clouds
12:50 PM 75.2 °F 28.4 °F 18% 29.98 in 6.2 mi NW 4.6 mph - N/A   Scattered Clouds
1:50 PM 77.0 °F 26.6 °F 16% 29.98 in 6.2 mi Variable 4.6 mph - N/A   Scattered Clouds
2:50 PM 77.0 °F 32.0 °F 19% 29.98 in 6.2 mi West 4.6 mph - N/A   Scattered Clouds
3:00 PM 77 °F 31 °F 10%  in 9 mi West 4.6 mph - -   Partly Cloudy
3:50 PM 77.0 °F 28.4 °F 17% 29.95 in 6.2 mi NW 4.6 mph - N/A   Scattered Clouds
4:50 PM 78.8 °F 28.4 °F 16% 29.95 in 6.2 mi West 6.9 mph - N/A   Scattered Clouds
5:50 PM 77.0 °F 32.0 °F 19% 29.95 in 6.2 mi West 8.1 mph - N/A   Scattered Clouds
6:50 PM 73.4 °F 37.4 °F 27% 29.95 in 6.2 mi West 4.6 mph - N/A   Scattered Clouds
7:50 PM 69.8 °F 39.2 °F 33% 29.95 in 6.2 mi NW 4.6 mph - N/A   Partly Cloudy
8:50 PM 68.0 °F 37.4 °F 33% 30.01 in 6.2 mi NNW 9.2 mph - N/A   Partly Cloudy
9:00 PM 68 °F 36 °F 20%  in 6 mi NNW 9.2 mph - -   Scattered Clouds
9:50 PM 66.2 °F 35.6 °F 32% 30.01 in - North 9.2 mph - N/A   Clear
10:50 PM 60.8 °F 37.4 °F 42% 30.04 in - NNW 6.9 mph - N/A   Clear
11:50 PM 59.0 °F 41.0 °F 51% 30.04 in - West 4.6 mph - N/A   Clear